Change the Weather History Date:

Friday, April 6, 2012

  Actual Average Record
Temperature  
Mean Temperature 46 °F -  
Max Temperature 60 °F 54 °F 86 °F (1991)
Min Temperature 33 °F 30 °F 5 °F (1979)
Degree Days  
Heating Degree Days 18    
Moisture  
Dew Point 25 °F    
Average Humidity 47    
Maximum Humidity 87    
Minimum Humidity 20    
Precipitation  
Precipitation 0.00 in - - ()
Sea Level Pressure  
Sea Level Pressure 30.15 in    
Wind  
Wind Speed 8 mph (ESE)    
Max Wind Speed 21 mph    
Max Gust Speed 26 mph    
Visibility 10 miles    
Events      
Averages and records for this station are not official NWS values.
T = Trace of Precipitation, MM = Missing Value Source: NWS Daily Summary

Daily Weather History Graph

Daily Weather History Graph

Search for Another Location

Airport or City:

Trip Planner

Search our weather history database for the weather conditions in past years. The results will help you decide how hot, cold, wet, or windy it might be!

Date:

Astronomy

Apr. 06, 2012 Rise Set
Actual Time 6:48 AM CDT 7:52 PM CDT
Civil Twilight 6:18 AM CDT 8:23 PM CDT
Nautical Twilight 5:42 AM CDT 8:59 PM CDT
Astronomical Twilight 5:04 AM CDT 9:37 PM CDT
Moon 8:16 PM CDT (4/6) 6:20 AM CDT (4/6)
Length of Visible Light 14h 04m
Length of Day
13h 04m
Full, 100% of the Moon is Illuminated
Apr 6
Full
Apr 6
Full
Apr 13
Last Quarter
Apr 21
New
Apr 29
First Quarter

Hourly Weather History & Observations

Time (CDT) Temp. Windchill Dew Point Humidity Pressure Visibility Wind Dir Wind Speed Gust Speed Precip Events Conditions
12:13 AM 41.0 °F 36.4 °F 26.6 °F 57% 30.17 in 10.0 mi East 6.9 mph - N/A   Clear
12:33 AM 41.0 °F 35.8 °F 26.6 °F 57% 30.17 in 10.0 mi East 8.1 mph - N/A   Clear
12:53 AM 41.0 °F 35.8 °F 26.6 °F 57% 30.17 in 10.0 mi East 8.1 mph - N/A   Clear
1:13 AM 39.2 °F 35.0 °F 26.6 °F 61% 30.17 in 10.0 mi ENE 5.8 mph - N/A   Clear
1:33 AM 39.2 °F 35.0 °F 26.6 °F 61% 30.18 in 10.0 mi East 5.8 mph - N/A   Clear
1:53 AM 39.2 °F 35.0 °F 26.6 °F 61% 30.19 in 10.0 mi East 5.8 mph - N/A   Clear
2:13 AM 37.4 °F 32.1 °F 26.6 °F 65% 30.19 in 10.0 mi East 6.9 mph - N/A   Clear
2:33 AM 35.6 °F 30.7 °F 26.6 °F 70% 30.19 in 10.0 mi East 5.8 mph - N/A   Clear
3:13 AM 37.4 °F 33.8 °F 26.6 °F 65% 30.19 in 10.0 mi East 4.6 mph - N/A   Clear
3:32 AM 35.6 °F 32.8 °F 26.6 °F 70% 30.20 in 10.0 mi East 3.5 mph - N/A   Clear
3:53 AM 33.8 °F 29.6 °F 26.6 °F 75% 30.19 in 10.0 mi East 4.6 mph - N/A   Clear
4:13 AM 33.8 °F 29.6 °F 26.6 °F 75% 30.19 in 10.0 mi East 4.6 mph - N/A   Clear
4:32 AM 33.8 °F 27.7 °F 26.6 °F 75% 30.19 in 10.0 mi East 6.9 mph - N/A   Clear
4:53 AM 33.8 °F 28.6 °F 26.6 °F 75% 30.20 in 10.0 mi East 5.8 mph - N/A   Clear
5:13 AM 33.8 °F 28.6 °F 28.4 °F 81% 30.20 in 10.0 mi East 5.8 mph - N/A   Clear
5:32 AM 33.8 °F 29.6 °F 28.4 °F 81% 30.20 in 10.0 mi East 4.6 mph - N/A   Clear
5:53 AM 33.8 °F 30.8 °F 30.2 °F 87% 30.20 in 10.0 mi East 3.5 mph - N/A   Clear
6:13 AM 33.8 °F - 30.2 °F 87% 30.21 in 10.0 mi Calm Calm - N/A   Clear
6:32 AM 33.8 °F - 30.2 °F 87% 30.21 in 10.0 mi Calm Calm - N/A   Clear
6:53 AM 33.8 °F 30.8 °F 30.2 °F 87% 30.21 in 10.0 mi East 3.5 mph - N/A   Clear
7:13 AM 33.8 °F 29.6 °F 28.4 °F 81% 30.21 in 10.0 mi East 4.6 mph - N/A   Clear
7:32 AM 33.8 °F 29.6 °F 30.2 °F 87% 30.22 in 10.0 mi ESE 4.6 mph - N/A   Clear
7:53 AM 37.4 °F 32.8 °F 30.2 °F 75% 30.22 in 10.0 mi SE 5.8 mph - N/A   Clear
8:13 AM 39.2 °F 34.2 °F 30.2 °F 70% 30.23 in 10.0 mi SE 6.9 mph - N/A   Clear
8:32 AM 42.8 °F 39.3 °F 28.4 °F 57% 30.23 in 10.0 mi SE 5.8 mph - N/A   Clear
8:53 AM 44.6 °F 40.2 °F 26.6 °F 49% 30.23 in 10.0 mi SSE 8.1 mph - N/A   Clear
9:13 AM 44.6 °F 40.2 °F 26.6 °F 49% 30.23 in 10.0 mi SSE 8.1 mph - N/A   Clear
10:13 AM 48.2 °F - 26.6 °F 43% 30.23 in 10.0 mi SSE 9.2 mph - N/A   Clear
10:32 AM 50.0 °F - 26.6 °F 40% 30.22 in 10.0 mi SSE 9.2 mph 16.1 mph N/A   Clear
10:53 AM 51.8 °F - 26.6 °F 38% 30.23 in 10.0 mi SE 11.5 mph 17.3 mph N/A   Clear
11:13 AM 51.8 °F - 26.6 °F 38% 30.22 in 10.0 mi SSE 10.4 mph - N/A   Clear
11:32 AM 53.6 °F - 24.8 °F 33% 30.22 in 10.0 mi SSE 9.2 mph - N/A   Clear
11:53 AM 53.6 °F - 24.8 °F 33% 30.21 in 10.0 mi SE 11.5 mph 19.6 mph N/A   Clear
12:12 PM 53.6 °F - 24.8 °F 33% 30.20 in 10.0 mi SE 9.2 mph - N/A   Clear
12:33 PM 55.4 °F - 23.0 °F 29% 30.19 in 10.0 mi SE 12.7 mph 23.0 mph N/A   Clear
12:53 PM 55.4 °F - 23.0 °F 29% 30.18 in 10.0 mi SSE 11.5 mph 20.7 mph N/A   Clear
1:12 PM 55.4 °F - 23.0 °F 29% 30.17 in 10.0 mi SSE 10.4 mph 17.3 mph N/A   Clear
1:33 PM 57.2 °F - 23.0 °F 27% 30.16 in 10.0 mi SE 13.8 mph 24.2 mph N/A   Clear
1:53 PM 57.2 °F - 21.2 °F 25% 30.15 in 10.0 mi SE 11.5 mph 20.7 mph N/A   Clear
2:13 PM 57.2 °F - 21.2 °F 25% 30.14 in 10.0 mi ESE 17.3 mph 25.3 mph N/A   Clear
2:33 PM 59.0 °F - 21.2 °F 23% 30.13 in 10.0 mi SE 17.3 mph 23.0 mph N/A   Clear
2:53 PM 59.0 °F - 19.4 °F 22% 30.12 in 10.0 mi SE 19.6 mph 26.5 mph N/A   Clear
3:13 PM 60.8 °F - 21.2 °F 22% 30.11 in 10.0 mi SE 17.3 mph 25.3 mph N/A   Clear
3:33 PM 60.8 °F - 19.4 °F 20% 30.10 in 10.0 mi SE 16.1 mph 25.3 mph N/A   Clear
3:53 PM 60.8 °F - 19.4 °F 20% 30.10 in 10.0 mi SE 17.3 mph 25.3 mph N/A   Clear
4:13 PM 60.8 °F - 21.2 °F 22% 30.08 in 10.0 mi ESE 19.6 mph 25.3 mph N/A   Clear
4:33 PM 59.0 °F - 21.2 °F 23% 30.08 in 10.0 mi SE 12.7 mph 26.5 mph N/A   Clear
5:13 PM 59.0 °F - 21.2 °F 23% 30.06 in 10.0 mi SSE 13.8 mph 20.7 mph N/A   Clear
5:33 PM 60.8 °F - 21.2 °F 22% 30.05 in 10.0 mi SE 15.0 mph 26.5 mph N/A   Clear
5:53 PM 57.2 °F - 21.2 °F 25% 30.04 in 10.0 mi SE 12.7 mph 19.6 mph N/A   Clear
6:13 PM 57.2 °F - 21.2 °F 25% 30.04 in 10.0 mi SE 15.0 mph 23.0 mph N/A   Clear
6:33 PM 57.2 °F - 21.2 °F 25% 30.04 in 10.0 mi SE 20.7 mph - N/A   Clear
6:53 PM 57.2 °F - 21.2 °F 25% 30.04 in 10.0 mi SE 13.8 mph 17.3 mph N/A   Clear
7:13 PM 57.2 °F - 21.2 °F 25% 30.03 in 10.0 mi SE 12.7 mph 19.6 mph N/A   Clear
7:33 PM 57.2 °F - 21.2 °F 25% 30.03 in 10.0 mi SE 12.7 mph 19.6 mph N/A   Clear
7:53 PM 55.4 °F - 21.2 °F 26% 30.03 in 10.0 mi SE 9.2 mph 17.3 mph N/A   Clear
8:13 PM 53.6 °F - 23.0 °F 30% 30.02 in 10.0 mi SE 11.5 mph - N/A   Clear
8:32 PM 53.6 °F - 24.8 °F 33% 30.03 in 10.0 mi SE 10.4 mph - N/A   Clear
8:53 PM 51.8 °F - 24.8 °F 35% 30.02 in 10.0 mi SE 11.5 mph - N/A   Clear
9:13 PM 51.8 °F - 26.6 °F 38% 30.02 in 10.0 mi SE 11.5 mph - N/A   Clear
9:32 PM 51.8 °F - 24.8 °F 35% 30.02 in 10.0 mi SE 11.5 mph - N/A   Clear
9:53 PM 51.8 °F - 24.8 °F 35% 30.03 in 10.0 mi SE 10.4 mph - N/A   Clear
10:12 PM 51.8 °F - 24.8 °F 35% 30.04 in 10.0 mi SE 10.4 mph - N/A   Clear
10:33 PM 53.6 °F - 24.8 °F 33% 30.04 in 10.0 mi SE 10.4 mph - N/A   Clear
10:53 PM 51.8 °F - 24.8 °F 35% 30.04 in 10.0 mi SE 10.4 mph 17.3 mph N/A   Clear
11:13 PM 51.8 °F - 24.8 °F 35% 30.05 in 10.0 mi SSE 9.2 mph - N/A   Clear
11:33 PM 51.8 °F - 26.6 °F 38% 30.05 in 10.0 mi SE 10.4 mph - N/A   Clear
11:53 PM 51.8 °F - 26.6 °F 38% 30.06 in 10.0 mi SE 10.4 mph - N/A   Clear